Theta_e
320 320 320 319 318 320 321 323 319 318 319 312 313 315 315 318 318 319 318 318 318 317 315 315 315 313 315 316 317 317 317 318 318 316 315 321 322 323 322 322 324 321 331 338 341 344 344 344 345 345 345 343 343 344 344 345 342 340 340 340 340 339 339 337 336 338 339 339 339 339 339 340 339 338 338 338 338 338 338 338 339 339 339 339 338 337 335 333 332 330 329 328 328 327 327 326 326
320 320 320 318 318 322 323 322 318 314 314 310 313 316 314 317 317 318 318 318 318 316 313 314 315 314 314 315 316 316 317 317 317 317 317 320 320 323 323 321 324 323 330 338 341 344 345 345 345 345 345 344 343 343 344 344 343 341 340 340 340 340 340 337 336 338 339 338 339 339 339 339 338 338 337 336 337 337 337 338 338 338 338 338 338 338 337 336 335 333 331 330 330 329 328 327 326
319 320 320 319 320 323 322 320 316 311 310 309 311 316 316 317 317 317 316 316 316 314 313 314 315 315 316 316 316 317 318 316 315 317 317 322 324 325 323 322 324 324 329 337 341 343 345 344 344 345 344 344 343 343 344 344 343 342 341 340 340 340 340 338 336 337 339 338 338 338 338 338 337 338 336 335 336 336 337 336 337 338 337 338 338 338 338 338 337 335 333 332 332 331 329 327 326
319 319 318 320 323 321 322 320 316 311 309 309 309 315 317 316 317 316 316 315 314 313 314 316 316 316 316 318 317 317 317 317 316 316 319 325 325 324 323 322 324 323 327 335 341 342 344 344 344 344 344 344 343 343 344 345 343 342 341 340 341 340 340 340 336 336 339 338 337 338 337 337 336 336 335 333 334 334 336 335 335 337 337 337 338 338 338 338 337 335 334 334 332 330 327 326 325
318 317 316 321 324 321 321 319 317 313 310 311 310 314 317 315 316 315 315 315 314 314 315 317 318 316 315 317 317 318 318 317 317 315 319 324 322 323 323 322 323 322 323 333 340 342 343 343 344 343 343 343 342 342 343 344 343 342 342 341 341 340 340 340 338 334 337 339 336 336 336 336 336 335 335 333 332 332 333 332 332 335 336 337 338 338 338 337 337 335 333 332 330 328 326 325 325
318 318 317 319 321 319 320 316 314 313 313 316 313 315 316 315 315 314 315 315 314 314 314 316 317 316 316 316 316 318 317 316 318 317 320 323 321 323 324 322 323 322 322 330 337 341 343 342 343 343 343 343 342 342 342 343 343 343 342 341 341 340 340 339 339 335 334 338 337 336 335 335 336 335 334 332 330 331 329 330 329 331 335 336 337 337 337 336 336 334 331 330 328 327 327 325 324
318 320 321 321 320 320 319 314 313 314 315 316 316 316 316 315 313 313 316 316 315 314 314 314 314 315 316 314 315 316 314 315 317 320 322 324 324 324 325 324 323 323 323 327 334 339 342 341 341 342 342 342 342 342 341 342 342 343 342 341 340 340 340 339 339 337 334 335 337 337 334 334 335 333 334 332 330 331 328 329 328 329 333 336 336 336 336 335 335 333 331 329 329 328 327 325 323
317 319 322 323 322 322 319 315 316 317 315 314 315 316 315 315 313 313 316 316 315 315 314 315 314 315 315 313 316 316 315 315 314 320 326 326 325 325 325 325 325 325 324 327 331 337 340 340 339 341 342 342 342 342 341 341 342 342 341 341 340 340 340 339 338 338 336 335 335 335 334 334 333 332 335 333 330 330 329 329 329 330 333 334 335 335 335 334 334 332 330 329 329 326 325 323 321
317 318 322 322 320 319 317 316 317 317 317 315 315 315 315 314 313 314 316 316 315 315 314 314 314 315 315 315 317 317 318 317 318 323 328 328 325 325 327 326 327 328 326 327 330 335 339 339 338 340 341 342 342 342 342 341 341 341 341 340 340 340 339 339 338 338 337 337 336 336 336 334 332 333 335 334 331 329 329 329 330 332 333 334 334 335 334 331 330 330 328 326 326 325 324 323 321
319 318 322 322 318 316 314 315 317 316 317 316 315 315 314 313 313 314 314 315 314 314 314 312 314 315 315 316 316 316 316 316 320 323 325 329 326 325 327 327 328 330 329 329 331 335 337 337 337 339 340 341 341 342 342 341 341 340 340 340 340 340 339 338 338 338 337 337 337 337 337 334 332 334 336 336 333 330 330 330 331 333 334 334 333 333 332 329 328 327 326 325 325 324 324 322 321
319 318 320 320 315 313 312 314 316 317 316 315 315 313 313 312 313 314 314 314 312 313 313 312 315 316 315 315 316 315 314 313 316 319 322 328 328 326 327 329 329 330 331 330 331 332 334 335 336 338 339 340 339 341 341 341 341 340 340 339 340 339 339 338 338 338 337 337 337 337 337 335 333 334 336 337 335 333 332 333 333 334 334 333 332 331 330 329 328 328 326 325 325 324 323 321 320
318 318 319 317 314 314 314 315 316 317 316 315 315 313 312 311 313 314 315 315 313 314 314 314 314 314 315 315 315 314 313 312 315 318 321 325 328 328 328 330 330 331 332 331 332 331 332 335 336 338 339 339 338 340 340 340 340 340 340 339 340 339 339 338 337 337 337 337 337 336 336 335 334 335 337 338 337 335 334 334 334 334 333 331 330 330 330 329 329 328 327 326 325 324 323 321 320
319 319 318 315 316 317 316 316 316 317 317 316 315 312 310 311 314 314 314 315 313 314 314 313 312 313 315 315 314 313 312 311 314 319 321 324 327 328 329 329 330 331 332 333 333 333 333 335 337 338 339 339 339 339 339 339 339 339 339 339 339 339 339 339 337 337 337 337 337 336 335 335 334 335 336 337 338 337 336 336 334 332 332 330 330 331 331 330 329 328 328 326 325 324 323 322 320
319 318 318 316 315 317 316 316 316 316 315 315 314 311 310 312 313 312 314 315 314 314 312 311 312 313 314 314 315 313 311 309 314 321 322 326 327 328 328 327 328 329 330 332 333 334 334 335 336 337 338 339 338 338 338 338 339 339 339 339 339 338 338 338 338 337 336 336 336 336 335 335 334 335 335 336 337 337 336 336 334 333 332 332 331 331 331 330 329 328 328 326 325 325 324 323 320
317 316 318 317 315 316 315 317 318 316 315 315 313 310 312 311 310 311 313 315 314 312 310 311 311 313 314 314 314 312 308 308 315 320 321 324 326 326 325 325 327 327 328 329 331 333 334 335 335 336 337 338 338 338 338 337 337 338 339 337 338 338 338 338 338 338 337 336 336 336 335 334 334 334 335 336 336 336 336 336 335 334 333 333 332 331 331 330 329 329 328 326 325 325 324 324 321
315 316 318 315 314 315 314 317 318 316 315 315 312 310 313 313 309 311 311 311 314 312 311 313 310 312 312 311 311 308 306 308 312 315 316 319 320 320 318 319 321 322 325 326 329 330 331 334 335 336 336 337 337 337 338 337 337 337 338 337 337 337 338 338 337 338 338 336 336 336 334 334 335 335 334 335 335 335 335 335 335 334 334 333 333 332 331 330 329 328 328 326 323 324 324 324 323
314 317 315 312 313 314 315 318 317 316 315 315 312 311 315 315 312 311 309 309 312 313 312 312 310 310 309 308 307 306 306 307 308 310 311 313 313 314 313 313 314 315 318 320 323 326 328 331 332 335 335 336 337 336 337 337 337 337 336 336 336 335 336 337 336 336 337 337 336 334 334 334 336 337 336 334 334 334 334 335 334 333 333 333 333 332 331 330 329 328 327 326 323 323 324 323 324
316 317 314 311 313 313 315 319 316 316 316 315 313 312 314 316 314 312 310 310 312 313 313 311 309 308 308 307 306 306 306 307 308 309 310 311 311 312 312 311 311 312 313 314 315 319 323 326 329 332 334 335 336 336 336 336 337 336 336 335 336 337 336 335 336 336 335 336 336 335 333 333 335 337 337 335 334 334 334 334 333 332 332 333 333 332 331 330 329 328 327 327 324 322 323 323 323
316 317 315 313 314 313 314 316 315 315 316 315 313 311 312 314 314 312 313 314 313 313 314 312 309 309 309 308 307 306 306 307 307 309 309 310 310 310 311 311 311 311 313 313 313 314 315 319 323 327 331 334 334 336 335 335 336 336 336 336 336 339 337 334 334 334 334 335 335 336 335 334 334 335 337 336 334 334 334 333 333 333 332 332 333 331 330 330 329 327 327 327 325 322 322 322 322
316 317 316 314 315 313 312 314 314 314 313 315 314 310 311 313 311 312 313 314 314 314 313 313 312 311 309 307 306 307 306 307 307 308 308 309 308 309 309 309 310 311 312 314 314 314 314 313 315 319 325 330 332 334 335 335 335 336 336 336 335 336 337 336 334 334 335 336 335 334 334 333 333 333 334 334 334 333 333 333 333 334 332 330 331 330 330 330 329 328 327 326 325 323 322 323 322
316 316 317 315 313 313 313 313 313 312 311 314 313 310 312 312 310 311 312 314 315 313 310 310 311 310 308 307 306 306 306 306 306 307 307 308 308 307 307 308 308 310 312 313 314 315 315 314 313 314 318 323 329 332 334 335 335 336 335 335 335 334 336 337 337 335 336 336 334 333 334 333 331 332 332 332 333 332 332 332 332 333 333 331 330 330 331 330 329 328 327 326 325 324 323 323 321
316 315 315 315 313 315 314 312 312 311 310 312 312 312 313 310 310 311 312 314 314 310 308 307 307 306 305 305 305 306 306 306 306 306 306 306 307 307 306 307 308 309 311 312 313 314 315 315 314 313 313 317 325 330 332 334 334 335 335 335 335 335 335 334 335 336 335 334 333 334 335 334 331 331 333 333 333 331 330 331 331 331 331 332 332 331 330 329 330 329 328 327 326 325 324 323 321
316 315 313 314 313 315 314 312 312 310 310 312 312 311 310 310 311 310 310 311 309 306 305 305 305 304 304 304 305 305 305 305 305 304 304 305 306 306 305 306 307 308 309 311 312 313 315 316 315 314 313 315 323 329 330 332 333 334 334 334 334 333 333 332 333 334 334 333 333 334 335 336 334 332 333 333 333 332 330 329 329 330 330 330 331 330 330 329 329 329 329 328 327 326 324 323 322
316 316 313 313 312 313 313 312 311 310 311 311 310 309 310 312 311 309 308 307 305 304 305 304 304 304 304 304 304 304 304 304 304 303 303 304 304 304 305 305 305 307 308 310 312 314 316 317 317 316 314 316 324 328 330 331 332 333 332 332 333 332 331 332 333 333 333 332 331 332 333 334 335 334 333 330 332 333 331 331 330 331 331 330 328 327 328 329 329 330 329 328 327 326 325 324 323
314 315 313 312 310 312 312 310 309 309 310 309 308 309 311 311 310 309 307 306 305 304 304 304 304 304 304 303 303 304 304 303 304 303 303 303 303 304 305 304 305 307 307 310 314 316 318 319 319 318 317 320 325 328 329 331 332 332 330 330 332 331 331 331 332 332 332 332 331 332 332 332 332 334 334 332 333 332 331 332 331 332 331 329 328 327 328 329 330 329 329 328 328 326 326 325 323
313 313 313 312 311 311 310 309 309 308 308 308 309 312 311 308 309 308 305 305 305 303 303 303 303 303 302 302 302 303 303 302 303 303 303 303 303 304 305 304 305 306 307 311 316 317 319 320 320 319 320 323 326 328 329 330 331 332 330 331 332 331 331 331 331 331 330 330 330 330 332 332 332 333 332 332 334 332 332 332 331 330 329 328 329 329 329 329 329 329 328 328 328 327 326 326 325
311 311 311 311 311 310 309 310 309 308 308 308 310 312 310 306 309 310 305 304 305 304 304 302 302 302 301 301 301 302 302 301 301 302 303 303 303 303 304 304 305 306 309 314 316 318 320 321 321 321 321 325 328 329 329 330 330 331 331 330 330 330 330 330 329 329 328 329 329 329 330 330 331 332 332 331 332 333 333 332 330 330 330 330 329 328 328 328 328 328 328 328 328 327 326 326 325
309 310 312 312 312 311 310 310 308 309 309 307 309 311 309 308 309 309 305 303 305 305 304 302 302 302 301 301 301 302 302 301 301 301 302 302 302 301 302 302 303 305 308 313 316 318 321 322 324 324 324 326 328 329 330 330 329 329 330 328 328 328 328 328 328 327 327 328 328 329 329 329 329 330 330 330 330 331 331 330 329 330 330 329 328 327 328 328 328 327 327 327 327 326 326 325 325
309 310 314 315 314 314 311 310 308 309 310 306 308 312 311 310 309 306 304 304 305 305 304 303 302 301 301 300 300 302 301 301 301 300 300 300 300 300 301 301 301 304 308 312 315 318 321 323 323 325 325 326 327 327 328 327 327 327 327 326 327 327 327 327 326 325 325 326 327 327 328 328 328 328 329 329 329 329 329 328 327 327 328 328 328 327 327 327 327 325 324 324 324 324 324 323 323
310 310 313 315 317 316 311 310 309 311 310 305 309 314 313 310 308 306 305 304 306 306 305 303 302 301 300 300 300 301 301 300 300 299 299 299 299 299 300 300 300 303 308 312 315 318 320 321 321 323 325 326 326 326 326 326 325 326 325 325 325 325 325 325 324 324 324 324 325 325 326 326 327 327 327 327 327 328 328 327 326 326 326 326 327 326 326 326 325 323 322 323 322 322 321 319 320
312 312 312 315 316 315 312 310 310 313 309 305 310 315 314 310 308 307 305 304 306 307 305 303 302 301 300 300 300 300 300 300 299 298 298 298 298 298 299 300 301 304 308 311 314 317 319 320 321 323 324 325 324 325 325 324 324 324 324 323 323 323 322 322 322 321 321 321 322 322 323 323 323 324 325 325 325 325 325 325 325 324 324 324 325 325 325 323 323 322 321 322 321 321 320 319 319
313 313 315 316 315 315 315 309 309 313 310 308 312 315 315 311 308 307 304 304 306 306 305 303 302 301 300 300 300 300 300 300 299 298 298 297 297 297 298 299 301 305 307 309 312 315 319 321 322 322 323 323 323 323 323 322 322 322 321 320 320 320 320 320 319 317 318 319 319 319 320 320 320 321 323 322 322 322 323 323 322 321 321 321 322 322 323 322 321 320 320 320 320 319 319 319 319
314 315 317 318 316 316 315 311 309 310 310 311 313 314 315 311 308 306 304 304 306 306 304 302 301 301 300 300 300 300 300 301 300 299 297 297 297 296 297 298 300 303 306 308 310 314 318 320 321 321 321 321 321 321 321 321 320 319 318 317 317 318 318 317 316 316 316 317 317 317 318 318 317 318 319 320 319 319 319 319 318 318 318 318 318 319 319 318 318 318 319 319 319 318 318 318 319
316 315 316 316 315 314 315 314 311 310 311 313 313 314 315 311 308 306 304 304 305 305 304 302 301 301 300 300 300 299 300 300 299 298 297 296 296 296 296 298 299 301 304 306 309 312 315 317 319 320 319 319 319 319 319 318 317 317 316 315 314 315 314 313 312 312 313 313 313 314 315 315 315 316 316 316 316 316 316 316 315 316 316 315 316 316 315 315 315 316 316 317 317 317 316 316 316
317 317 316 316 314 314 314 315 312 311 313 315 314 315 315 312 307 306 304 303 305 305 303 302 301 300 300 300 300 299 299 299 297 297 296 295 296 296 296 298 299 300 302 305 308 311 312 314 316 317 316 316 315 315 315 314 314 313 312 311 310 309 308 308 308 308 308 309 309 310 311 311 311 312 312 312 313 313 313 313 312 313 313 314 314 313 313 313 313 313 313 313 314 314 313 313 313
317 317 317 316 316 315 315 314 311 310 313 315 315 316 316 314 310 306 304 303 304 304 302 302 301 300 300 300 300 299 298 298 297 296 295 295 295 295 296 297 297 299 301 303 306 309 309 310 312 314 314 313 313 312 311 311 311 310 308 307 306 304 304 304 304 304 304 305 305 305 306 306 307 308 308 308 308 308 309 309 309 309 310 310 310 310 309 310 310 310 310 310 310 310 310 309 310
315 316 316 316 317 317 315 313 310 309 313 315 315 315 316 316 312 306 304 303 304 304 303 303 302 301 301 300 300 299 298 297 296 296 295 295 295 295 296 296 297 299 302 303 305 307 307 307 309 310 310 311 311 311 310 310 308 307 306 304 301 300 300 301 301 301 301 301 301 302 302 302 303 304 304 304 304 304 304 304 305 305 305 305 305 305 305 305 306 307 307 307 307 307 307 307 307
314 315 316 316 317 317 314 312 309 308 312 315 313 313 315 315 311 306 304 305 305 304 303 303 302 301 301 300 300 299 298 297 297 296 295 295 295 295 296 296 297 299 301 303 304 305 306 307 308 307 307 310 311 311 311 310 307 306 304 302 300 299 298 298 298 298 298 299 299 300 300 300 300 301 301 301 301 301 301 301 301 301 301 301 301 301 301 302 302 303 304 305 306 305 304 304 304
314 314 315 317 317 316 314 311 309 308 312 315 313 312 315 314 308 305 304 304 304 302 302 302 301 301 301 300 300 299 298 298 297 297 296 295 295 295 295 296 297 298 300 302 303 304 305 307 306 305 307 309 310 309 309 307 306 305 303 300 299 298 296 296 296 296 296 297 297 297 298 298 298 298 298 299 299 299 299 298 299 299 299 299 299 299 299 299 299 300 300 302 304 304 303 302 302
314 314 315 317 317 317 318 314 309 308 310 312 312 312 315 313 307 305 303 302 302 300 300 300 300 301 301 300 299 299 299 298 297 297 296 296 295 295 295 295 296 298 300 301 302 303 304 305 305 305 306 306 306 306 305 304 302 302 300 298 297 295 293 293 293 292 293 293 293 293 294 294 294 295 295 295 295 296 296 295 295 296 296 296 296 296 296 297 297 298 298 299 301 302 302 301 301
314 314 315 318 317 316 318 314 310 310 310 309 311 315 317 316 312 308 303 300 301 300 299 300 299 300 299 298 298 298 298 298 297 297 296 296 295 294 294 294 295 296 298 298 299 301 302 303 305 305 304 303 302 301 300 300 299 298 297 295 294 292 291 290 290 289 289 289 289 289 289 289 290 290 290 290 290 291 291 291 291 291 291 291 291 292 292 293 293 295 296 297 298 300 301 300 300
317 315 314 315 316 316 316 314 313 315 316 312 312 320 321 315 313 311 305 302 302 300 300 300 300 299 299 299 298 298 297 297 297 296 296 296 295 294 293 293 293 294 294 296 297 298 299 301 303 304 303 302 300 299 299 298 297 295 295 294 292 291 290 289 289 288 288 287 287 287 287 287 287 287 287 287 288 288 288 288 288 288 288 287 288 288 288 289 289 290 292 293 295 297 299 299 298
319 317 314 314 314 316 315 315 316 319 320 312 310 319 322 316 314 311 306 305 304 302 301 301 300 299 299 299 299 298 297 296 296 296 295 295 294 294 294 292 292 292 292 294 295 297 298 300 301 302 301 300 299 299 298 297 296 295 294 292 290 289 289 288 288 288 288 288 287 287 287 287 287 287 287 287 287 287 287 287 287 287 287 287 287 287 287 287 287 287 287 288 290 291 294 296 296
320 316 313 313 313 315 315 315 316 318 317 313 310 315 318 317 315 309 306 307 305 303 302 302 301 300 300 300 299 298 297 296 296 295 295 295 294 294 293 292 291 291 291 292 293 295 297 299 300 300 299 299 298 297 297 296 295 294 293 291 289 288 288 288 288 288 288 288 288 288 288 288 288 288 288 288 288 288 288 288 288 288 288 288 288 288 288 288 287 287 287 287 287 288 289 292 292
318 312 310 312 313 315 315 315 316 314 315 317 314 313 315 318 315 307 306 308 308 306 304 302 302 301 300 300 299 298 297 296 296 295 295 294 293 292 292 291 290 290 291 292 293 294 295 296 297 297 297 296 296 295 295 294 293 292 291 290 288 288 288 288 288 288 288 288 288 288 288 288 288 288 288 288 288 288 288 288 288 288 288 288 288 288 288 288 288 288 288 287 288 287 287 288 289
313 309 310 311 311 312 313 315 315 313 315 319 317 314 316 319 317 312 309 310 311 309 305 304 303 301 301 300 299 298 296 296 295 295 294 293 292 291 290 290 289 289 290 290 292 293 294 294 295 295 295 294 293 293 293 293 292 291 290 289 288 288 288 288 288 288 288 288 288 288 288 288 288 288 288 288 288 288 288 288 287 287 287 287 287 287 287 287 287 287 287 286 287 287 287 287 287
309 310 312 312 311 311 311 312 313 315 318 319 316 315 316 318 319 317 314 312 312 310 306 304 303 302 301 300 299 298 296 295 295 295 294 292 291 290 290 290 289 289 289 289 290 291 292 293 293 294 293 292 292 291 291 291 290 289 289 288 288 288 288 288 288 288 288 288 288 288 288 287 287 287 287 287 287 287 287 287 287 286 286 286 286 285 285 285 285 285 285 285 285 285 285 285 285
310 313 314 316 314 312 313 313 313 318 321 315 310 311 314 317 319 317 314 311 309 310 307 305 303 302 301 301 300 298 297 295 294 294 294 292 291 290 290 290 289 288 288 288 289 290 291 291 292 292 291 290 290 289 289 289 288 288 288 288 288 288 288 288 288 288 288 288 288 288 288 287 287 287 287 287 287 287 287 286 286 286 285 285 285 284 284 284 284 284 284 284 284 284 284 284 284
311 314 315 319 319 316 318 318 316 319 318 310 306 309 313 316 316 315 313 310 308 308 308 306 304 302 302 301 300 298 296 295 294 294 294 293 292 291 290 290 289 288 288 287 288 289 289 289 290 290 289 289 288 288 288 288 287 288 288 288 288 288 288 288 288 288 288 288 288 288 288 287 287 287 287 287 287 287 286 286 286 285 285 285 284 284 284 284 284 283 283 283 283 283 283 283 283
312 315 317 321 321 319 321 319 316 318 315 307 306 310 314 315 315 313 311 307 305 304 305 305 304 303 302 301 300 298 296 295 294 294 294 294 293 292 291 290 289 288 287 287 287 288 288 288 288 288 288 287 287 287 287 288 288 288 288 288 288 288 288 288 288 288 288 288 288 288 287 287 287 287 286 287 287 286 286 286 286 285 285 284 284 284 284 283 283 283 283 283 283 283 283 283 283
312 314 316 319 319 320 322 320 318 318 313 307 307 312 317 317 313 307 304 301 300 300 300 302 304 303 302 301 299 298 296 295 294 294 294 294 292 292 291 290 289 288 287 286 286 287 287 287 287 287 287 287 287 287 287 288 288 288 288 288 288 288 288 288 288 288 288 288 288 287 287 286 286 286 286 286 286 286 286 285 285 285 284 284 284 283 283 283 283 283 282 282 283 283 283 283 282
312 311 314 317 317 316 315 314 313 312 312 310 309 312 314 313 309 302 300 300 299 300 299 300 302 302 301 300 299 298 297 295 294 294 294 293 292 291 291 290 289 288 287 286 286 286 287 287 287 287 287 287 287 287 288 288 288 288 288 288 288 288 288 288 288 288 288 287 287 287 287 287 287 286 287 287 287 286 286 285 285 285 284 284 283 283 282 282 282 282 282 282 282 282 282 282 282
312 311 314 314 314 313 312 311 308 308 316 316 312 313 312 311 310 303 301 303 301 300 300 300 301 301 300 300 299 298 297 296 295 294 294 293 292 291 291 290 289 288 287 286 286 286 287 287 287 287 287 287 287 287 288 288 288 288 288 288 288 288 288 288 288 288 288 288 287 287 287 287 287 287 287 287 287 287 286 286 285 285 284 284 283 283 282 282 282 281 281 281 281 281 281 282 281
312 313 315 312 311 313 313 316 313 312 319 318 313 315 315 314 315 308 303 305 304 302 301 300 301 300 300 300 300 299 298 296 295 294 294 293 292 291 291 290 289 288 286 286 286 286 286 287 287 286 287 287 287 287 288 288 287 287 287 287 287 288 288 288 288 288 288 287 287 287 287 287 287 287 287 287 286 286 285 285 285 284 283 283 282 282 282 282 282 281 281 281 281 281 281 281 281
310 312 314 313 316 316 314 317 318 318 320 317 313 313 313 315 316 311 308 308 307 304 302 300 301 300 300 301 300 299 298 296 295 294 294 293 292 291 291 290 288 287 286 286 286 286 286 286 286 286 287 287 287 287 287 287 287 287 287 287 287 287 287 287 287 287 287 287 287 287 287 287 287 287 286 286 285 285 284 284 283 283 282 282 281 281 281 281 281 281 281 281 281 281 280 280 280
308 309 311 312 314 316 315 315 317 319 320 318 316 314 314 315 315 313 312 310 308 306 303 302 302 301 301 301 301 300 298 297 295 294 294 293 293 292 291 290 288 287 286 286 285 286 286 286 286 286 286 287 287 287 287 287 287 287 287 287 287 287 287 287 287 287 287 287 287 287 287 287 286 286 285 284 284 283 283 283 282 282 281 281 281 281 281 281 281 281 281 280 281 280 280 279 279
309 311 312 312 311 312 314 314 313 315 317 317 318 319 317 313 312 313 313 312 310 307 305 304 303 302 302 301 301 300 298 297 296 294 294 294 293 292 291 290 288 287 286 285 285 285 285 285 286 286 286 287 286 286 287 286 286 286 287 287 287 287 287 287 287 287 287 287 287 287 286 286 285 284 284 283 283 282 282 282 281 281 281 280 280 280 280 280 280 280 280 280 280 279 279 279 278
312 313 313 314 313 313 316 317 313 311 314 315 315 318 318 311 307 311 311 310 309 308 306 305 304 303 302 301 301 301 299 298 296 295 295 294 293 292 291 289 288 287 286 286 285 285 285 285 286 286 286 286 286 286 286 286 286 286 286 286 286 287 286 286 287 287 287 287 286 286 285 285 284 283 283 283 282 282 281 281 280 280 280 280 280 280 280 280 279 279 279 279 279 279 278 278 278
Wind_Speed
9 7 7 7 6 3 1 2 0 2 0 4 3 1 3 2 2 2 2 2 0 2 2 3 1 1 2 3 4 4 3 4 6 4 4 3 3 3 6 4 3 5 14 25 21 17 20 18 18 16 16 15 14 14 13 13 12 12 11 10 9 8 7 7 9 10 8 9 8 8 9 8 8 7 7 6 6 5 6 6 6 6 6 7 8 8 8 8 9 9 9 8 8 8 8 8 7
9 7 7 6 5 3 1 1 1 3 2 5 2 1 3 1 1 2 4 3 3 3 2 3 2 2 3 3 4 3 1 2 5 4 2 3 2 4 4 6 2 4 15 23 21 16 16 17 19 16 15 15 15 14 13 12 11 11 10 9 8 8 8 7 10 11 9 9 8 9 8 8 7 7 6 6 6 5 5 5 6 6 5 6 6 7 7 8 7 7 7 7 7 7 7 7 6
9 6 7 4 3 2 1 1 1 3 3 4 3 2 1 1 3 4 4 4 4 3 2 2 2 1 4 3 1 1 3 1 3 2 0 5 3 6 1 7 0 4 15 23 22 15 14 16 19 17 16 15 14 14 13 12 11 11 10 8 7 7 7 7 8 11 10 9 9 9 8 7 7 6 5 4 5 5 5 5 6 6 5 5 5 5 6 7 6 5 6 7 6 6 7 6 6
7 7 6 3 1 0 1 0 1 2 3 3 4 3 1 1 4 4 3 4 4 3 2 2 2 1 3 1 2 1 4 2 3 3 2 5 7 8 1 7 1 4 14 22 22 16 14 16 19 18 16 15 14 14 13 13 11 10 9 8 7 6 6 6 7 9 10 8 9 9 8 7 7 6 4 4 4 5 5 4 5 6 5 4 4 5 5 6 5 6 8 6 6 6 7 8 9
6 7 6 2 2 1 0 1 1 1 3 2 4 4 1 1 3 3 4 3 2 1 1 2 0 2 1 2 2 1 4 2 3 5 3 4 10 9 4 5 2 4 12 20 22 16 13 18 20 19 17 16 14 14 14 13 11 10 9 8 7 6 6 5 5 7 9 8 8 8 7 7 6 5 4 3 3 5 5 5 5 5 5 4 4 4 5 5 5 7 9 8 8 8 9 12 13
4 5 6 3 1 1 1 2 2 3 4 2 4 5 2 2 2 4 3 2 1 1 1 2 2 1 1 2 2 3 5 4 3 6 6 7 11 6 5 4 3 5 11 17 21 17 12 17 20 19 18 16 14 13 14 13 11 10 9 8 7 6 5 5 5 5 8 8 7 8 7 6 6 5 3 2 2 4 5 6 6 5 4 4 3 3 5 6 5 6 10 10 10 11 13 15 16
4 2 2 3 2 1 1 3 3 5 3 3 3 3 3 3 2 3 1 2 1 1 0 1 2 3 1 1 1 1 5 6 6 7 10 10 9 3 5 4 4 4 12 15 19 18 12 17 20 19 18 16 15 13 14 13 12 11 9 8 7 7 6 5 5 5 7 7 8 7 6 6 5 4 3 2 2 3 5 6 5 4 4 4 4 5 7 7 5 6 11 11 12 14 16 17 17
5 2 1 0 1 1 1 4 3 2 2 1 3 2 3 4 2 3 1 0 1 1 1 1 3 2 2 1 1 4 6 11 8 8 11 7 5 2 6 4 4 4 11 14 17 18 11 16 20 18 18 17 15 13 13 13 13 11 10 8 8 7 7 6 6 5 6 7 8 7 6 5 4 3 3 2 2 2 4 6 5 4 4 4 5 5 6 5 4 5 11 12 13 15 16 17 17
4 2 1 1 1 2 2 3 3 2 1 0 2 2 3 3 2 3 1 1 1 1 2 2 3 2 2 1 4 5 6 16 10 9 13 9 7 3 4 4 4 3 8 12 14 13 9 14 19 18 17 16 16 14 12 13 13 12 10 9 9 8 7 6 6 6 6 7 8 7 6 5 4 4 4 2 2 2 4 5 5 4 4 4 4 4 3 3 4 6 10 12 14 15 16 17 17
1 2 0 1 1 3 3 2 2 2 1 0 1 2 3 2 2 3 1 2 2 2 2 2 2 2 2 2 5 3 7 17 13 12 16 12 9 5 3 3 3 2 4 8 10 8 7 14 19 18 18 17 16 15 13 13 13 12 11 10 10 8 8 7 7 7 6 7 7 7 7 5 5 6 5 3 3 3 4 5 5 4 4 3 3 3 1 4 6 8 11 13 14 15 16 17 17
0 2 0 1 2 3 4 3 3 3 2 1 0 1 3 2 3 2 1 1 1 2 2 1 1 2 1 3 4 3 7 17 17 16 15 12 10 6 4 3 2 2 1 4 8 9 8 11 17 19 18 18 17 16 15 14 13 12 12 11 10 9 9 8 8 7 7 7 8 8 7 6 6 7 6 5 4 4 4 5 5 4 3 2 2 1 2 5 8 10 12 13 14 15 16 17 17
1 1 1 2 2 2 2 3 4 4 4 3 3 2 2 3 3 1 1 2 1 1 2 1 1 2 2 3 3 3 8 19 18 15 13 11 10 7 5 3 2 2 2 1 5 9 9 8 12 17 18 18 17 17 16 16 15 14 13 12 11 11 10 9 8 8 7 7 8 8 8 7 8 8 7 7 5 4 5 5 5 4 3 1 2 0 3 6 9 11 12 14 15 16 17 17 17
1 1 2 2 0 0 2 3 3 3 4 3 3 2 1 2 2 2 2 2 1 1 3 2 1 2 3 2 2 2 9 19 16 13 11 9 8 8 6 4 2 2 2 2 3 6 8 7 7 11 16 19 18 17 17 17 16 15 14 13 12 12 11 10 8 8 8 8 8 9 8 8 8 8 7 7 6 5 5 5 5 5 4 3 2 1 4 7 9 11 13 14 15 16 17 18 17
1 0 1 2 1 0 2 2 4 4 4 4 2 2 2 1 2 2 3 2 1 3 3 1 2 3 1 1 2 2 9 17 13 10 9 7 6 6 6 5 4 3 3 3 2 4 6 7 8 8 12 16 16 16 17 17 17 16 15 14 13 13 13 11 9 8 8 8 8 9 10 10 10 9 8 7 6 6 6 6 6 5 5 4 2 1 3 6 9 11 12 14 15 16 17 18 17
0 1 1 3 2 2 2 0 3 4 4 4 1 3 2 2 0 2 2 4 2 4 1 2 1 3 2 2 1 4 12 15 10 7 6 4 4 5 6 6 6 5 3 3 2 4 5 6 8 8 9 11 13 14 15 16 18 16 16 15 14 14 14 13 11 9 8 8 8 10 11 11 11 11 9 7 7 7 7 7 7 6 5 4 3 1 2 4 8 9 11 12 13 15 17 18 19
1 1 1 2 2 2 2 1 2 3 4 3 1 3 3 3 2 2 1 4 3 2 2 1 1 3 4 4 4 8 13 12 8 6 4 4 5 6 7 6 6 5 4 3 2 3 5 7 7 8 8 8 10 11 12 14 16 17 17 16 15 14 13 13 12 10 9 9 9 10 11 12 12 11 10 9 8 7 7 7 7 7 6 5 4 2 2 5 7 8 9 11 11 13 16 17 19
1 1 1 2 2 2 3 5 3 2 5 4 2 2 2 1 1 1 1 3 5 3 3 3 5 5 5 4 4 8 10 11 8 7 7 7 8 7 8 9 8 6 5 3 1 2 4 6 8 9 9 9 8 10 11 12 14 17 18 17 15 15 14 13 12 11 10 10 9 9 10 12 11 9 10 11 9 8 7 8 8 7 7 6 5 3 3 6 7 6 7 9 11 12 15 17 19
1 1 1 2 2 1 3 5 3 2 4 4 2 1 2 1 1 1 1 4 2 5 2 5 9 9 9 6 6 7 10 13 13 12 12 12 10 9 9 10 11 9 8 6 4 3 4 5 8 10 11 10 9 9 9 10 11 14 16 15 15 15 14 13 12 12 11 11 10 9 9 10 10 8 8 10 9 9 8 8 9 9 8 8 7 5 5 6 6 6 8 10 12 12 14 16 18
0 0 0 1 2 1 1 3 3 1 2 2 2 1 2 2 2 3 3 2 1 3 1 6 8 8 9 9 10 10 12 14 15 15 15 14 12 11 10 10 11 11 11 9 8 6 5 6 7 9 12 11 8 8 9 8 9 11 12 13 14 13 12 13 13 12 11 11 10 11 10 10 10 10 10 10 9 9 9 9 10 11 9 9 8 8 8 6 7 9 9 11 13 12 13 15 16
0 1 0 3 2 1 2 2 2 1 1 0 1 2 2 1 1 2 5 7 3 1 3 2 3 4 7 8 10 10 11 13 14 14 15 14 12 10 10 10 10 11 13 12 11 9 7 6 7 9 11 11 9 7 8 8 7 8 9 10 12 14 14 13 12 10 10 11 10 12 12 12 12 11 12 12 10 10 10 10 11 12 10 8 8 9 8 7 8 9 9 11 12 9 11 13 13
0 1 1 5 2 2 4 4 2 1 1 2 1 2 3 1 1 2 3 6 2 3 5 5 3 5 5 6 8 9 11 13 14 14 14 13 11 10 9 9 9 11 13 12 12 11 8 6 6 8 9 11 10 7 8 8 7 6 7 8 8 12 13 11 10 10 10 11 10 12 13 14 13 12 13 12 10 10 10 10 10 10 10 9 9 8 7 8 8 8 9 10 10 7 10 12 12
1 1 3 4 2 1 4 4 2 2 2 2 3 2 1 2 1 3 4 5 1 3 6 6 5 5 5 5 6 8 11 12 13 13 13 12 12 11 10 9 9 11 12 12 12 11 9 7 5 6 8 9 9 7 8 9 7 6 6 6 6 7 7 7 7 8 10 12 11 11 14 16 14 12 12 11 11 10 10 9 9 9 9 10 10 7 7 8 9 8 8 8 8 7 9 12 11
1 1 1 2 2 1 3 4 3 4 4 4 3 1 1 3 2 1 2 2 4 4 5 5 6 5 4 5 6 9 10 10 11 11 11 11 11 11 11 10 10 11 12 13 12 12 11 8 6 2 5 7 7 6 7 8 7 6 6 6 5 4 4 5 5 6 7 8 9 9 13 17 15 13 12 12 12 11 10 10 10 9 9 10 11 9 9 10 9 8 8 8 7 7 8 10 11
2 1 2 2 2 3 1 2 3 5 5 3 1 1 3 4 2 2 2 3 5 4 5 6 6 5 5 7 9 9 9 8 9 8 8 8 9 10 10 10 10 10 10 13 13 12 12 11 9 4 4 7 5 5 7 7 6 6 6 4 3 3 3 4 4 4 5 4 5 6 8 11 13 15 17 16 14 11 10 10 9 9 9 9 11 11 11 13 13 10 11 10 7 7 7 8 10
1 0 3 2 2 4 3 3 4 6 6 2 2 4 4 2 2 3 3 4 4 4 4 5 5 7 8 9 10 9 8 9 8 8 7 7 8 8 10 10 10 10 12 13 13 13 12 13 12 7 4 7 6 5 6 7 5 4 4 3 1 2 1 2 2 1 2 2 2 3 4 5 8 12 15 17 15 12 12 10 8 9 10 9 11 11 10 11 14 13 13 11 8 8 9 7 7
0 0 1 2 2 3 3 5 5 5 3 3 4 4 2 2 2 4 4 4 5 4 4 5 5 8 8 8 8 8 8 8 8 8 7 7 8 10 11 12 12 12 13 13 13 13 13 14 14 10 9 9 8 8 7 7 5 4 5 2 2 3 3 4 5 6 5 3 2 0 1 1 3 6 8 9 13 15 14 11 9 10 11 12 11 10 9 8 11 14 15 13 11 11 11 10 8
1 0 2 4 3 3 2 4 3 2 3 4 5 2 4 2 1 2 4 5 4 4 5 5 5 7 7 5 6 6 6 7 7 7 8 9 9 11 12 13 13 13 14 14 14 14 14 15 16 14 14 12 10 11 12 10 7 7 8 5 5 6 5 6 6 7 7 6 6 4 2 2 2 2 4 4 6 11 10 8 8 8 7 8 8 7 8 9 11 13 15 14 12 13 13 11 9
1 2 4 5 4 3 2 2 1 1 2 4 4 2 5 3 2 2 4 5 4 4 5 5 5 6 5 5 5 5 6 7 7 8 10 10 10 11 11 12 13 12 14 14 14 15 15 16 17 15 16 15 13 15 15 14 10 10 11 9 9 9 7 7 7 7 8 8 7 6 5 4 4 3 2 3 1 3 3 3 4 4 4 4 5 6 6 8 9 10 12 13 13 14 14 12 9
1 2 5 5 5 3 1 1 1 2 1 2 3 3 5 4 4 4 3 4 4 4 4 4 5 5 4 4 4 4 6 7 8 9 9 9 9 9 10 11 11 11 13 14 15 16 16 18 18 16 16 17 17 16 16 15 14 14 14 13 13 12 10 10 11 11 11 9 8 7 6 5 4 4 4 4 2 1 2 3 3 2 4 4 6 7 6 6 7 7 9 11 11 12 12 11 9
1 0 3 6 6 2 2 2 2 2 1 2 3 3 3 6 5 4 2 3 5 3 4 4 4 3 3 3 3 4 6 7 8 9 9 9 8 9 9 10 10 10 13 15 16 18 19 20 20 20 19 19 19 20 18 17 18 18 18 18 16 14 14 14 16 17 15 13 13 12 9 7 7 7 6 6 4 3 3 5 6 6 6 6 5 6 5 5 6 7 8 9 10 10 9 8 7
1 1 1 2 4 1 3 2 3 2 1 1 5 5 1 8 5 4 3 3 6 2 3 2 2 2 2 2 2 3 5 6 7 8 9 9 9 8 9 9 10 11 13 15 18 20 21 22 23 24 23 22 22 23 23 21 21 21 20 21 21 21 21 19 20 21 20 19 19 17 15 15 14 12 9 8 7 7 7 7 8 7 7 7 6 6 6 6 6 6 6 7 8 8 8 7 8
1 2 3 1 2 1 3 2 3 1 1 0 5 4 1 8 4 4 4 2 4 3 3 2 2 2 1 2 2 2 3 5 6 8 9 9 9 9 9 9 9 11 13 15 18 21 22 24 25 26 25 25 25 25 26 25 25 24 24 25 24 24 24 23 24 26 25 23 22 21 20 20 20 18 14 12 12 12 10 9 9 9 10 9 8 7 7 7 6 6 7 7 7 8 9 9 11
1 3 4 2 2 2 0 2 2 2 0 1 3 4 0 6 4 3 3 0 4 4 4 3 1 1 1 1 2 2 2 3 5 8 10 9 9 9 9 8 9 10 12 14 18 21 23 24 25 26 27 27 26 26 27 26 27 26 26 27 26 25 24 24 26 26 25 24 23 22 21 21 22 21 18 16 16 17 15 14 13 13 13 13 11 11 10 9 8 8 8 8 8 9 9 10 12
2 2 4 2 3 3 2 2 2 1 2 2 1 5 3 5 5 1 2 1 3 4 4 3 2 1 1 1 1 2 2 3 5 8 10 10 9 9 8 8 9 10 12 14 18 21 23 25 26 28 29 29 29 29 29 29 29 28 28 29 28 26 26 27 26 26 25 24 23 22 21 21 22 21 20 19 19 19 19 18 17 16 15 14 14 13 13 13 12 10 8 8 8 8 8 9 9
3 4 4 3 3 5 4 2 1 1 3 4 3 6 7 6 7 2 2 1 3 4 4 3 3 2 2 2 2 2 3 3 5 7 8 8 8 8 8 9 10 11 13 15 18 20 22 24 26 29 30 31 31 31 31 31 30 30 30 29 28 28 27 27 26 26 25 23 23 21 20 20 20 20 20 19 19 19 18 18 17 16 15 14 14 14 14 13 13 12 11 10 9 8 7 8 8
1 3 3 4 4 6 4 1 1 1 4 7 7 9 11 7 8 5 3 2 3 4 4 3 3 3 3 2 2 3 3 3 4 5 6 6 7 7 8 9 9 11 14 16 18 20 20 21 24 27 28 28 29 29 29 29 29 29 29 29 29 29 28 27 27 27 25 24 23 21 20 21 20 19 18 18 19 18 18 17 16 16 15 14 14 15 15 14 13 12 11 11 10 9 9 10 11
2 2 2 4 6 7 3 2 2 1 3 7 8 9 13 10 4 6 4 3 4 5 5 4 4 4 3 3 4 3 3 3 2 3 5 5 6 7 8 9 9 12 16 17 18 19 19 19 21 22 23 24 25 26 26 25 25 26 27 28 29 29 29 29 29 28 27 26 24 24 23 22 21 20 19 20 20 20 19 19 18 18 18 17 17 17 16 15 14 12 11 11 11 12 12 14 15
2 3 4 4 6 7 3 2 2 1 3 5 4 7 13 10 2 5 4 5 5 5 5 5 5 5 4 4 5 4 4 4 3 4 4 5 6 7 9 11 12 14 16 18 19 19 19 19 19 19 20 21 23 23 23 24 24 25 28 29 30 30 30 30 31 30 29 27 26 26 26 25 24 23 23 22 23 23 22 22 21 21 20 20 20 19 18 17 17 16 14 11 11 12 13 16 18
4 3 4 5 4 4 3 1 2 2 4 3 1 6 11 5 3 3 3 4 3 2 2 3 4 5 5 5 5 5 5 5 5 5 5 5 6 7 9 12 13 15 17 19 19 19 20 20 20 20 20 21 22 22 24 25 27 27 29 30 31 32 33 32 32 31 30 29 29 28 28 28 27 26 26 25 25 25 25 25 24 22 22 22 21 20 20 20 19 18 17 13 10 9 11 15 17
6 4 5 6 2 2 5 1 2 2 2 3 2 6 9 4 3 3 2 1 1 0 2 2 1 2 3 3 3 4 6 6 5 4 5 5 5 6 8 10 13 16 18 19 19 20 21 21 21 22 23 23 23 24 26 28 29 30 32 33 34 35 35 34 34 34 33 33 32 32 31 30 30 29 29 28 28 27 27 27 26 25 25 24 22 21 22 21 20 19 17 16 13 10 10 12 14
7 7 8 8 4 6 6 1 2 2 2 2 3 7 9 6 6 4 4 2 1 1 1 1 2 2 0 0 1 1 3 4 4 4 4 4 5 6 7 8 12 16 16 17 17 19 20 21 22 24 24 25 26 27 28 30 31 33 34 33 33 34 32 32 33 32 33 34 34 34 33 32 31 31 31 30 30 29 29 29 28 28 28 27 25 23 23 23 23 21 18 17 16 12 10 10 12
5 8 12 12 9 8 4 2 1 4 4 2 2 6 5 2 5 4 4 4 3 2 2 4 3 3 3 3 3 2 1 1 2 3 4 4 6 6 7 9 11 13 14 15 16 17 18 20 22 23 24 26 26 27 27 28 30 30 29 28 28 28 27 26 26 26 30 33 33 32 32 31 31 31 30 30 29 29 28 28 28 28 28 28 27 25 25 25 25 25 23 19 18 15 11 10 12
5 3 8 12 10 6 5 5 4 4 3 1 1 6 5 0 2 3 5 4 4 4 4 6 6 6 6 6 5 5 4 3 2 3 4 5 5 6 7 8 9 11 13 15 17 18 18 19 21 22 23 23 23 24 25 26 28 29 30 31 30 29 26 24 25 27 29 30 31 30 30 29 29 29 29 28 27 27 27 26 26 26 26 26 26 26 25 24 24 24 24 22 21 20 15 12 13
3 2 2 7 8 7 8 7 6 4 2 0 3 4 5 5 1 4 5 4 5 7 8 8 8 9 9 8 7 6 6 5 4 4 4 4 4 5 6 7 8 11 14 16 18 19 20 20 20 21 21 21 22 24 26 27 29 30 33 35 34 33 31 28 28 30 29 29 29 29 28 28 27 27 27 26 25 25 25 24 24 24 24 24 24 24 23 22 22 21 22 22 21 21 19 14 13
1 2 1 3 4 5 6 6 5 2 2 4 5 4 4 7 3 4 4 5 7 10 12 12 12 12 11 9 8 7 6 5 4 4 4 4 4 4 5 6 9 12 15 17 19 21 23 23 23 23 23 24 25 26 27 27 29 31 33 36 36 33 32 30 29 29 29 28 29 28 27 27 26 26 25 25 24 23 23 22 22 22 22 22 22 21 21 20 20 20 20 20 19 19 19 16 13
3 5 6 6 5 4 3 3 3 1 4 8 8 9 6 6 4 5 3 5 9 10 12 12 13 13 12 10 10 8 7 5 4 4 4 4 3 3 5 7 9 13 16 18 21 23 24 25 25 26 27 27 28 27 27 27 28 30 32 35 36 33 30 28 28 28 27 27 27 27 26 25 25 25 24 24 23 22 22 21 21 21 21 20 20 19 19 19 19 19 19 18 18 17 17 17 15
7 7 6 7 5 4 3 0 1 2 6 5 5 9 8 6 4 7 4 2 4 8 10 11 13 13 13 11 10 9 8 6 6 5 5 4 3 3 5 7 9 13 16 18 21 23 25 26 26 27 27 27 28 27 27 27 28 30 32 33 34 33 31 29 28 27 25 25 25 24 24 24 24 24 24 23 22 22 21 21 20 20 20 19 19 19 19 19 18 18 17 17 16 16 16 15 15
4 4 4 5 3 2 2 2 2 5 5 1 2 3 7 7 4 4 3 2 4 8 11 15 16 16 14 12 10 10 8 7 7 6 6 6 5 5 5 6 9 12 16 18 22 24 25 26 26 27 27 27 27 27 27 28 29 31 31 32 32 31 30 29 27 26 25 24 22 20 20 21 22 23 23 22 22 21 21 20 19 19 19 19 19 18 18 18 18 17 17 17 16 16 15 15 14
3 4 6 5 3 3 4 3 3 6 4 2 2 1 5 8 6 5 2 3 4 4 6 13 18 17 15 13 11 9 8 7 7 6 6 7 7 7 7 8 8 11 15 18 21 24 26 27 27 28 28 27 28 28 28 29 29 30 30 30 29 28 28 27 27 26 24 22 21 19 19 19 20 21 21 22 21 21 20 20 19 19 18 18 18 17 17 17 17 17 17 17 17 17 17 16 14
7 7 8 7 5 4 5 4 3 4 1 2 1 1 3 5 5 6 3 2 2 1 1 5 14 17 15 14 11 9 8 8 7 6 7 7 8 9 8 9 9 11 15 19 21 24 26 27 27 28 29 28 28 28 28 28 28 28 28 27 27 26 26 25 25 24 22 21 20 20 19 18 18 19 19 20 20 20 20 20 19 19 18 18 17 17 18 18 17 17 17 17 17 17 17 17 16
6 4 3 5 5 4 4 4 3 2 2 2 1 2 4 3 1 1 2 3 2 2 2 1 8 12 11 11 10 9 9 8 7 7 7 8 9 9 9 9 9 12 16 19 21 23 25 27 28 28 29 28 28 28 27 27 27 26 25 24 24 24 24 24 23 21 20 19 19 19 18 17 17 17 18 19 20 20 21 20 20 20 19 19 18 18 18 18 18 18 18 18 18 18 18 17 17
3 1 1 3 3 2 1 1 0 2 1 3 4 3 4 2 2 1 0 0 1 2 2 3 7 9 9 9 10 10 9 8 8 7 8 9 10 9 9 9 10 13 17 19 21 24 26 27 28 28 28 28 27 27 26 26 25 24 23 22 22 21 21 21 21 20 19 19 18 18 18 17 17 17 17 18 19 20 21 21 21 21 21 20 20 20 20 20 20 19 18 18 18 19 19 19 18
4 3 5 2 1 2 2 0 2 1 5 3 4 5 3 1 2 3 3 2 3 3 3 6 9 10 10 10 10 10 9 9 9 8 9 10 11 10 10 10 12 15 18 20 23 25 26 27 28 28 28 27 26 26 25 25 24 23 21 20 20 19 19 19 18 18 17 17 16 16 15 15 15 15 15 16 17 18 18 19 19 19 20 20 20 20 21 22 21 20 20 20 19 20 20 19 18
5 5 6 3 2 1 1 3 1 2 6 3 4 8 6 4 3 2 4 5 6 7 7 8 9 10 11 11 10 10 10 9 9 9 9 11 11 11 12 12 14 17 20 22 24 25 26 26 27 28 27 27 26 25 24 23 22 21 20 19 18 17 17 16 16 15 14 13 13 13 12 12 13 13 14 14 15 16 17 17 18 18 18 18 19 20 20 21 21 21 21 20 21 21 21 19 18
1 2 3 3 2 4 4 4 3 4 6 4 4 6 6 8 6 4 7 10 11 10 9 9 12 13 13 12 12 12 10 9 9 9 9 10 12 13 14 15 16 19 20 22 24 25 26 26 27 27 26 26 25 24 23 22 20 20 19 17 16 15 14 13 12 12 11 11 11 11 10 11 11 12 12 13 14 15 15 16 16 16 17 17 18 19 20 20 20 21 20 20 21 22 21 20 19
1 1 3 0 3 3 4 3 2 3 5 4 3 3 4 7 8 9 12 13 13 13 10 11 14 16 15 13 13 13 11 10 9 8 9 12 14 15 16 16 17 20 22 23 25 25 26 26 26 26 26 25 24 23 22 21 19 18 17 15 14 12 11 10 9 9 8 9 9 9 9 9 10 11 11 12 13 13 14 14 15 15 16 16 17 18 19 19 20 20 20 20 20 21 21 20 19
6 6 7 4 2 0 2 2 1 1 4 4 4 5 3 3 4 9 12 10 11 14 13 12 13 14 15 14 14 13 11 10 10 9 10 13 15 15 17 17 17 20 22 24 25 25 26 26 26 26 26 25 24 23 22 20 19 17 15 14 12 10 9 7 7 6 6 6 6 7 7 8 10 10 11 12 13 14 14 14 15 15 16 17 17 18 19 19 19 19 19 20 20 20 20 19 19
5 7 10 10 7 4 4 5 2 0 3 2 2 6 3 2 0 2 2 1 5 11 11 10 11 14 14 13 13 12 11 11 10 10 11 13 14 16 17 17 18 21 23 25 25 25 26 26 27 27 26 25 24 23 21 20 18 16 14 13 11 9 7 5 4 4 4 4 5 6 7 8 10 11 12 13 14 14 15 15 16 16 17 18 18 19 19 19 19 19 19 20 20 20 20 19 19
Wind_Direction
345 345 348 346 350 314 281 323 185 93 30 100 77 111 95 10 324 306 107 117 185 86 338 318 295 268 307 323 345 344 321 343 6 360 53 55 343 8 184 164 12 180 173 177 173 172 174 168 170 176 177 179 181 179 179 177 173 173 171 166 158 155 154 149 147 144 145 145 145 144 139 137 134 133 130 122 121 120 117 117 111 106 102 98 95 92 89 89 89 91 90 81 75 70 68 66 64
344 345 346 350 359 321 162 305 243 121 138 108 83 36 72 262 250 50 61 47 40 52 333 303 262 249 285 283 288 280 288 313 348 355 51 5 15 41 199 185 30 174 175 178 174 170 177 175 173 178 181 182 183 180 182 180 178 175 172 172 163 158 155 150 150 149 152 152 149 147 145 144 137 137 142 131 125 126 124 121 114 112 106 101 100 99 95 90 88 88 86 78 70 61 56 50 45
346 348 340 339 10 357 155 257 199 134 131 104 97 80 46 163 75 48 32 9 14 348 297 262 236 250 250 216 253 316 64 54 333 318 48 15 20 14 279 191 138 172 179 179 175 171 177 183 178 178 184 184 184 183 183 182 182 178 174 176 167 160 159 153 151 154 155 154 154 151 151 150 143 142 147 140 136 142 138 128 123 119 110 108 104 101 97 93 87 67 58 59 52 46 40 31 17
350 350 334 290 248 103 232 48 117 134 117 106 105 103 310 53 55 35 13 346 342 313 281 249 209 117 280 358 26 321 45 63 53 349 335 39 10 357 120 173 144 174 183 182 180 173 177 192 184 180 185 186 188 185 184 184 185 182 179 179 172 165 166 160 152 156 159 159 159 157 156 153 150 150 153 153 144 152 153 138 134 129 119 119 110 102 94 87 70 32 24 28 23 21 17 6 355
356 1 3 257 243 32 285 87 99 120 101 103 109 107 67 19 30 14 4 359 346 300 306 294 48 96 273 6 333 335 23 5 63 9 352 22 355 359 141 153 97 169 181 183 185 176 184 197 185 182 187 188 190 188 189 190 190 189 186 185 180 173 172 167 155 158 164 164 164 165 163 157 157 161 165 173 160 153 163 156 146 143 131 124 112 104 84 70 63 25 7 4 4 1 355 348 345
359 3 37 72 114 12 212 135 130 103 70 26 99 103 72 35 356 338 336 44 62 296 323 313 354 334 153 82 297 354 3 325 356 5 348 326 336 3 143 145 106 160 178 184 189 183 191 196 185 185 188 189 192 193 195 196 197 196 193 193 191 186 183 178 164 158 166 169 172 169 166 168 166 174 184 201 191 153 156 151 145 150 132 113 102 95 71 51 52 23 354 352 357 351 347 343 343
348 315 45 72 110 288 221 119 117 107 73 346 52 77 56 40 340 319 309 134 134 152 166 26 322 286 106 65 240 30 8 356 345 335 331 322 337 32 147 146 113 157 180 184 192 191 196 195 188 189 190 190 194 199 200 201 203 199 198 200 202 198 193 188 178 166 166 173 180 176 174 179 172 187 202 206 196 154 145 136 132 138 119 109 95 81 68 45 32 1 343 348 352 347 347 347 349
353 346 262 292 95 26 107 113 101 85 91 316 331 341 4 11 320 308 34 88 46 67 357 74 279 285 84 310 46 85 33 11 352 345 347 344 11 82 149 140 117 153 184 185 193 196 203 198 195 197 195 192 196 205 205 207 210 206 204 205 210 207 199 194 190 183 174 178 184 187 192 184 177 199 204 188 169 153 141 133 128 125 115 111 98 86 76 51 31 350 339 346 348 348 350 351 353
6 10 232 218 102 103 123 123 101 68 92 193 281 279 311 340 282 293 25 65 22 328 356 17 290 344 61 209 88 96 30 15 12 14 13 21 32 61 137 130 121 137 185 190 194 198 207 202 201 203 202 198 199 208 212 213 217 217 214 215 218 210 207 203 197 194 187 192 191 193 199 186 191 212 205 175 151 145 138 139 135 130 133 126 115 117 92 27 21 2 347 348 348 350 352 351 353
17 21 207 136 136 151 147 143 120 113 85 47 291 303 310 313 254 276 327 51 36 327 36 42 281 6 10 119 85 87 22 18 22 16 13 21 29 50 101 112 101 90 176 196 197 195 204 205 207 207 209 207 203 209 216 218 221 225 223 225 225 217 214 212 206 199 196 206 202 201 204 194 204 219 212 190 160 152 148 148 148 148 156 139 121 128 65 0 12 10 2 358 354 353 352 352 352
264 45 312 179 171 171 165 156 131 108 96 133 175 325 327 308 260 241 287 29 48 319 61 151 224 16 300 114 81 95 36 18 15 6 6 12 19 46 69 83 66 36 106 195 201 201 204 206 210 210 214 215 210 210 219 221 221 227 228 229 230 227 220 215 215 210 207 211 213 212 209 202 214 227 219 207 179 163 167 161 161 168 179 152 126 124 25 16 19 15 11 7 1 356 353 354 354
245 71 256 210 179 177 157 142 126 111 123 141 105 81 342 281 269 11 335 3 16 295 86 9 347 347 261 122 107 120 37 14 8 0 3 8 12 32 48 61 58 45 61 153 195 205 206 206 213 214 217 220 217 214 221 225 223 225 228 230 232 232 228 219 217 223 222 219 222 223 220 214 221 233 226 215 198 180 184 174 169 180 199 184 153 111 25 23 20 17 13 10 6 1 358 357 356
12 83 234 188 30 54 130 130 123 127 137 127 74 70 284 261 303 14 339 355 336 309 69 5 318 283 290 92 132 131 26 9 2 1 8 13 21 28 41 52 62 82 85 115 170 202 207 209 214 217 220 223 224 221 223 228 229 228 225 227 231 233 235 229 222 228 234 233 232 230 230 229 230 240 237 225 211 199 195 182 180 186 193 191 170 36 28 24 18 15 10 8 8 5 2 1 358
6 46 280 129 64 104 134 127 146 170 143 115 43 359 249 243 359 329 311 345 35 24 39 12 281 270 304 336 149 99 4 357 358 10 12 18 41 42 49 55 67 88 104 123 161 190 206 213 215 220 220 224 227 229 230 231 233 233 230 227 229 233 233 235 233 231 238 242 240 234 232 235 237 241 244 237 225 214 203 191 193 196 196 191 184 2 26 23 13 8 4 5 7 6 4 4 1
4 136 40 114 138 157 172 139 154 183 143 117 51 329 265 170 166 240 297 337 23 51 334 207 271 294 357 331 4 11 338 346 3 23 20 26 64 65 55 56 64 71 95 119 163 191 204 211 216 223 222 222 223 229 235 236 236 235 236 232 231 235 233 233 235 235 242 249 247 240 235 236 239 241 247 245 243 232 214 207 206 207 211 201 205 279 4 9 358 354 354 360 7 6 2 4 4
37 168 128 130 153 187 187 159 165 181 140 118 110 296 265 150 175 220 50 320 310 65 311 300 89 328 12 9 356 340 332 355 24 45 60 79 79 65 58 59 60 57 65 93 155 191 210 210 213 219 221 222 218 224 232 238 239 236 239 240 237 239 239 235 233 236 242 251 254 249 244 241 241 244 249 247 249 244 228 223 219 221 227 218 222 256 313 331 331 338 347 353 5 7 1 1 4
260 236 167 135 164 201 176 166 176 145 125 133 134 270 277 136 184 185 123 265 283 312 322 38 74 40 47 55 360 338 348 19 41 63 69 65 61 46 41 45 47 44 39 36 356 214 218 218 218 216 218 222 216 219 225 233 237 236 238 241 243 244 245 244 241 243 244 246 248 255 258 250 245 244 250 253 251 249 241 231 230 235 235 234 238 243 281 312 318 328 335 341 357 5 3 1 2
257 232 159 141 154 157 164 161 155 96 111 133 126 267 276 311 318 355 207 195 249 298 310 85 87 80 81 69 25 9 17 33 44 51 49 42 39 29 25 27 29 28 25 22 356 302 251 236 228 220 216 219 220 216 217 226 231 235 238 238 242 242 244 251 251 251 252 250 247 253 260 253 250 247 248 256 255 254 249 242 242 239 236 234 238 249 266 294 312 324 320 325 349 2 4 1 359
313 163 71 134 127 99 149 137 139 168 88 105 135 209 259 309 346 346 306 260 317 308 85 115 122 106 77 48 27 23 26 34 39 41 43 38 30 23 18 12 16 17 15 17 5 341 301 267 246 233 220 215 223 221 214 219 223 230 234 234 239 238 240 251 251 251 255 256 257 255 256 256 258 256 253 257 261 262 260 261 248 233 239 240 236 253 258 266 294 311 311 317 341 358 2 359 356
274 228 64 118 132 130 202 192 175 195 71 260 158 163 251 271 290 311 310 303 303 62 61 111 150 75 47 34 21 19 27 33 35 39 42 38 31 24 14 8 6 5 10 13 5 355 333 292 263 248 231 219 217 219 214 214 219 224 228 228 230 233 239 244 240 243 251 254 261 258 255 257 258 258 261 264 263 268 272 276 258 231 234 244 240 250 251 257 281 297 304 317 334 350 357 355 356
160 294 56 109 158 179 177 204 203 181 207 245 151 190 233 156 231 270 292 295 269 100 36 14 25 30 34 32 18 18 27 30 31 34 36 34 29 24 13 6 0 1 10 11 3 358 347 319 279 252 239 225 213 210 208 208 214 221 229 227 224 231 242 248 230 228 241 246 256 256 252 253 255 252 253 259 257 263 268 275 278 249 234 241 242 245 245 254 269 284 299 317 328 341 352 351 356
145 50 44 105 178 193 143 181 189 160 184 198 203 233 232 124 218 240 249 281 343 53 18 25 46 47 40 27 20 27 31 30 29 28 29 27 23 19 10 5 3 7 12 8 5 4 356 343 307 252 234 223 209 202 198 200 206 213 230 232 232 236 249 263 243 239 246 246 255 259 253 247 251 251 245 249 249 253 255 256 272 261 249 248 241 242 250 259 268 268 280 305 321 334 349 350 354
271 111 89 155 200 258 131 166 182 166 190 209 217 254 123 204 226 196 235 313 35 39 28 49 59 55 46 37 35 38 34 31 30 26 22 21 18 13 7 5 3 4 7 5 10 13 7 9 4 289 214 201 197 195 189 189 191 202 223 227 238 242 249 272 257 254 260 255 263 273 261 245 246 254 250 249 246 249 252 255 262 250 255 259 247 250 254 257 265 258 261 286 310 327 343 352 355
285 122 154 185 208 246 179 163 182 188 224 234 139 184 219 228 212 138 119 70 67 66 59 61 64 59 52 48 42 37 34 32 33 28 23 22 17 10 7 6 3 5 5 8 20 25 23 35 33 18 156 152 158 175 175 176 180 193 204 208 239 235 243 282 269 252 265 271 272 289 286 259 254 259 254 248 244 247 246 252 262 248 249 263 262 263 261 255 252 253 262 275 297 315 328 345 352
248 153 135 154 205 240 232 226 223 219 245 232 178 226 228 221 153 126 97 100 99 83 73 64 62 56 48 42 37 31 28 26 24 24 23 20 14 14 17 12 10 12 10 16 32 39 40 50 50 42 106 126 133 150 154 154 161 176 172 163 209 213 225 305 338 306 275 303 288 290 301 282 272 266 258 246 239 245 243 242 254 253 253 267 273 271 270 258 246 253 263 266 281 300 306 311 328
137 121 148 218 235 261 243 243 239 230 242 182 209 235 137 125 144 117 88 112 120 102 79 60 57 55 47 38 32 26 26 21 15 14 13 14 16 19 20 17 17 17 18 29 42 49 54 61 64 68 93 107 115 124 128 133 136 138 143 122 117 130 102 96 79 70 76 55 42 4 258 282 292 279 279 266 249 247 241 240 258 268 269 270 275 274 270 264 254 258 260 259 271 291 297 288 293
78 86 264 254 272 284 237 246 251 240 229 195 225 213 107 126 226 124 102 127 143 118 83 59 65 63 54 47 37 27 28 22 10 11 13 18 20 16 15 14 17 19 27 41 50 56 64 70 74 81 96 106 112 112 118 130 129 119 131 119 95 109 97 94 81 63 62 49 45 43 41 47 19 304 304 308 263 248 235 243 265 271 276 273 279 283 276 281 281 271 262 258 263 279 292 286 287
84 309 273 249 263 260 242 270 278 277 219 197 220 153 122 174 206 74 95 140 174 124 91 65 65 63 53 48 41 31 28 21 15 19 21 19 13 8 9 11 12 17 31 45 56 63 73 80 82 88 100 111 115 112 115 120 114 106 116 107 87 91 86 81 69 53 50 42 39 39 41 32 23 29 1 355 323 268 251 273 270 242 245 255 269 284 287 293 300 287 267 258 260 275 288 287 292
82 326 294 282 274 248 40 6 305 303 156 151 202 169 152 163 130 81 88 150 167 131 100 72 62 56 48 43 40 39 28 22 25 25 21 14 7 5 6 10 12 20 37 51 63 72 82 85 86 95 104 110 112 116 118 108 102 100 98 94 86 82 78 75 72 65 59 53 52 51 43 24 17 35 26 12 11 1 337 346 357 308 279 276 271 280 285 287 292 287 268 260 269 285 291 293 303
205 88 310 301 284 230 74 357 299 287 131 133 229 231 161 145 119 69 55 187 188 148 86 70 61 56 49 45 43 46 33 26 31 25 18 12 6 6 5 12 24 35 50 61 73 79 85 86 88 99 107 108 107 111 115 105 99 99 94 93 91 88 84 81 81 76 71 70 69 66 59 52 52 51 44 44 49 60 48 19 13 10 354 340 322 305 299 296 290 282 278 282 292 298 299 305 315
271 258 235 287 286 185 99 16 316 279 139 163 235 268 181 152 137 35 11 227 215 185 92 78 61 63 47 56 54 51 45 34 33 26 20 15 9 8 7 17 41 58 64 70 81 85 89 94 95 100 105 107 106 106 108 106 102 101 99 98 96 94 91 88 87 83 79 77 75 74 72 71 70 63 56 59 63 62 51 35 24 23 23 12 6 352 341 341 324 308 306 309 309 307 311 318 319
28 273 232 176 262 229 106 69 350 323 103 177 232 263 170 158 149 33 13 230 194 169 123 100 68 70 39 62 60 60 64 49 43 32 22 16 12 9 8 23 52 73 77 79 86 90 94 100 101 102 104 105 107 107 106 105 104 103 102 100 99 96 93 90 88 85 82 79 77 77 76 75 74 70 64 62 66 66 57 48 46 48 49 42 37 28 14 9 5 1 352 343 340 335 334 330 324
158 251 256 214 228 260 60 115 53 345 243 166 236 268 214 148 145 46 36 166 166 153 135 124 108 84 62 67 62 64 76 59 46 30 19 14 11 8 9 27 59 79 86 87 91 95 99 102 105 106 106 107 108 109 109 107 106 104 101 99 98 97 95 92 89 86 84 81 79 78 79 79 78 75 71 70 71 73 71 68 65 61 57 54 50 46 42 41 38 27 7 355 354 349 342 332 325
193 201 253 251 232 256 281 156 121 351 250 221 230 268 269 136 136 84 72 127 181 154 142 143 134 115 99 86 85 74 66 56 37 18 12 8 9 12 19 42 68 84 90 94 99 101 103 105 107 107 108 109 109 109 109 108 107 105 102 99 97 96 95 93 91 87 85 84 82 80 80 80 80 80 79 78 77 77 77 75 72 70 69 69 65 60 58 55 52 43 28 16 4 352 343 335 328
217 188 228 243 224 238 253 234 141 42 248 242 225 252 255 159 141 138 93 143 190 150 145 155 145 147 132 115 105 81 67 60 33 13 9 8 12 18 36 57 72 86 91 97 103 106 108 109 109 110 110 109 108 108 107 105 105 103 100 97 95 92 90 90 88 86 84 83 83 81 80 80 80 82 82 81 79 78 77 76 74 72 70 70 67 66 64 59 56 50 43 37 27 17 9 358 346
194 179 227 244 245 249 243 204 70 5 259 248 242 252 259 218 158 146 135 145 171 153 157 168 156 151 136 121 112 97 87 71 38 19 18 17 25 35 55 63 65 84 95 98 104 108 109 111 114 115 113 112 111 110 107 105 103 100 97 93 89 86 86 86 84 84 83 83 83 83 82 81 81 82 83 83 82 80 79 77 74 70 66 63 61 60 56 53 52 49 46 41 36 33 24 17 6
129 171 228 241 252 264 249 127 95 16 263 251 246 256 264 252 170 134 155 164 173 178 177 176 164 155 145 136 128 118 110 91 65 51 45 37 42 59 74 75 72 85 96 98 101 106 107 110 114 114 113 114 114 113 110 107 102 99 97 92 88 85 84 84 82 82 81 81 82 81 81 80 80 79 80 81 81 80 78 76 75 72 68 64 63 62 58 55 50 47 46 38 35 34 26 21 13
196 226 238 242 242 258 266 119 107 133 244 253 236 253 260 252 161 118 165 186 191 193 187 180 166 156 150 148 147 137 126 121 116 94 75 62 62 75 84 87 88 89 94 98 99 102 105 108 110 107 109 113 115 115 114 111 107 104 100 96 93 89 87 85 83 82 82 82 81 80 79 78 77 77 77 78 78 77 75 73 71 71 70 66 64 63 60 57 52 49 46 34 30 35 31 24 19
213 225 243 253 241 260 268 162 120 165 231 258 215 258 262 244 122 124 176 196 205 216 224 199 169 166 163 158 152 146 140 132 125 109 95 87 76 82 88 89 93 94 96 100 102 103 105 107 106 103 106 112 114 115 115 113 111 109 105 100 97 93 89 88 86 85 84 83 81 80 79 78 77 76 75 75 75 75 74 72 70 69 69 65 61 58 55 53 49 48 45 37 32 35 37 28 25
219 213 231 244 214 232 256 181 117 179 231 298 318 279 267 224 156 165 160 176 183 238 277 282 241 198 162 154 150 145 143 133 128 119 106 102 89 80 81 86 94 98 100 102 104 106 107 107 106 107 108 110 111 113 113 112 111 109 106 102 99 95 92 90 88 85 83 82 81 80 79 78 77 76 75 74 74 74 74 73 71 70 69 67 62 57 54 51 48 46 42 38 36 33 35 32 30
216 215 230 244 222 223 250 78 97 213 206 254 289 284 268 225 206 192 138 148 171 162 233 228 247 264 321 173 178 134 129 127 127 123 109 94 83 70 66 77 88 94 98 102 105 107 109 112 113 113 113 113 113 112 111 111 110 108 105 102 99 95 91 87 84 81 80 81 80 80 79 78 77 76 75 74 73 73 72 72 71 70 69 67 64 59 56 53 52 51 45 39 37 33 30 32 32
226 215 223 241 244 232 227 135 185 254 227 193 248 268 266 183 206 197 140 161 170 159 217 205 192 203 212 201 181 167 139 134 121 115 105 82 78 71 62 67 77 87 95 102 107 111 114 118 119 120 119 118 118 117 116 115 114 112 110 106 101 96 89 83 82 80 80 81 80 80 80 78 77 75 74 73 72 71 69 69 68 67 66 65 63 60 57 54 52 52 49 44 40 36 33 33 29
248 219 218 231 241 229 197 180 198 252 260 102 227 252 259 157 177 154 142 176 177 176 210 206 193 194 201 196 182 176 167 164 149 123 115 98 92 87 78 69 71 87 100 105 110 115 120 124 126 127 126 125 123 122 122 121 120 117 114 109 103 100 95 90 90 89 87 85 83 81 79 77 76 74 73 71 70 69 67 67 66 65 64 63 62 60 57 54 51 50 50 48 45 42 41 36 27
241 41 214 208 210 209 198 194 209 249 326 129 198 228 266 265 192 106 143 180 192 199 205 203 199 197 197 195 185 180 175 168 161 145 133 120 108 96 89 81 84 99 107 109 112 115 119 124 128 130 130 130 129 127 125 123 119 116 112 108 103 102 101 99 97 94 91 88 85 81 77 74 73 71 70 68 66 65 64 63 62 62 61 60 59 58 56 53 51 49 48 47 46 45 44 39 29
279 52 81 155 180 194 186 198 221 259 307 241 197 162 250 252 194 118 153 198 220 209 198 198 197 194 193 192 187 182 176 171 165 155 144 131 114 95 93 96 103 112 112 112 114 115 117 120 123 125 125 126 126 126 124 121 117 114 111 109 106 104 104 102 99 95 92 88 85 80 76 72 69 67 65 63 61 59 58 57 57 57 56 56 55 54 52 50 47 45 44 43 44 44 43 41 35
137 125 102 92 82 90 130 211 210 162 249 244 198 174 228 260 195 165 168 221 228 204 191 195 193 190 190 187 185 182 175 173 173 163 150 139 121 107 113 113 114 117 116 116 117 117 118 119 120 122 121 121 123 122 121 118 116 114 113 112 111 109 107 104 101 96 91 88 84 79 76 72 68 65 62 59 57 55 53 52 52 52 52 51 51 49 48 46 44 42 41 39 39 39 38 37 35
144 143 109 95 88 88 98 175 166 221 245 243 191 183 219 263 211 189 191 219 194 167 176 189 186 187 190 188 185 181 176 174 173 171 160 150 138 135 130 122 121 122 121 120 120 120 121 121 122 122 121 122 122 121 120 118 118 116 115 115 113 112 110 105 101 96 91 87 83 79 76 71 68 65 61 57 54 52 50 48 48 48 47 46 45 44 42 41 41 39 39 37 35 35 33 31 29
161 156 137 129 115 131 157 137 179 242 240 204 57 178 220 240 220 190 177 115 141 164 177 182 182 186 188 187 185 179 178 174 171 172 166 163 161 157 148 133 130 129 126 125 125 126 126 126 126 125 123 124 124 123 123 121 119 118 116 115 114 112 109 105 100 96 92 88 84 80 76 71 67 63 60 56 52 50 48 45 44 43 42 41 40 39 36 35 35 33 32 31 30 30 28 27 23
207 163 162 181 174 174 214 195 200 241 235 78 35 144 227 241 244 257 243 141 171 190 181 180 180 182 184 183 181 176 175 174 174 174 170 172 173 167 162 153 145 140 136 134 132 131 131 130 129 128 127 127 127 126 124 122 120 119 117 115 113 111 107 103 99 96 92 89 86 81 77 71 66 62 58 54 50 47 45 43 41 39 38 37 34 33 31 30 29 27 25 23 22 20 18 20 18
193 177 175 190 180 188 219 200 223 258 224 67 42 176 238 254 251 266 280 102 135 107 52 184 177 177 181 178 175 172 173 179 178 175 175 178 177 173 168 163 157 152 147 142 139 137 135 133 133 131 130 130 130 128 126 124 122 120 118 115 112 109 105 101 98 95 93 89 85 82 78 74 68 63 56 52 47 43 41 39 37 36 34 31 29 27 25 24 23 23 20 17 17 14 12 11 9
190 184 183 203 191 203 218 202 230 263 119 109 116 181 219 213 153 296 333 33 53 86 48 136 165 169 169 163 165 173 179 183 178 176 183 184 180 176 172 169 165 160 154 150 145 142 139 137 136 134 134 133 132 130 128 126 123 120 118 115 112 109 105 102 99 95 92 87 82 77 74 69 63 56 48 42 38 34 32 30 28 28 26 25 23 21 20 19 17 18 15 13 11 8 6 6 3
183 73 164 229 215 179 177 293 68 45 29 189 182 223 245 205 135 118 78 289 125 110 106 152 160 158 157 164 175 182 185 182 177 181 186 185 183 179 177 176 171 165 162 158 153 148 145 142 140 138 137 137 136 134 131 128 125 122 118 115 112 108 104 101 97 92 86 79 73 68 63 58 52 45 37 32 28 24 22 20 18 17 16 16 14 14 14 12 12 13 10 8 6 3 2 1 359
149 175 194 205 355 96 129 216 86 67 269 228 175 225 251 209 213 156 138 196 171 154 169 174 170 164 170 184 186 187 187 179 178 184 185 184 183 185 185 181 176 172 169 165 159 154 151 148 145 143 141 141 139 137 134 130 128 125 122 118 113 107 102 97 91 85 78 72 67 63 56 50 44 37 30 26 22 18 15 13 12 10 10 9 8 7 7 6 7 7 4 3 1 360 359 357 353
139 187 185 130 20 344 204 243 165 181 254 251 186 222 219 195 216 143 153 199 201 194 184 175 178 177 185 195 191 190 187 177 178 183 183 183 183 187 189 186 183 178 173 169 164 159 156 153 151 148 146 145 143 140 138 136 134 131 126 121 114 108 101 94 88 82 76 71 66 59 51 43 36 29 23 19 15 12 9 8 8 7 5 5 4 3 2 2 3 2 0 359 356 355 355 352 348
117 206 167 127 218 205 179 225 228 202 241 260 198 217 225 210 203 163 184 203 202 194 180 179 189 189 193 195 191 192 185 175 180 182 179 183 187 191 190 189 187 182 177 172 167 163 161 158 155 153 151 149 148 145 143 141 138 134 128 124 118 110 103 96 89 84 76 69 61 51 42 34 27 21 16 13 10 7 6 5 5 3 2 2 1 360 359 359 359 358 357 355 352 351 351 349 344
34 189 173 230 262 209 172 196 220 211 234 259 226 211 220 212 195 179 191 201 192 180 179 192 197 195 195 192 189 190 185 181 181 177 180 186 190 192 190 189 188 184 180 175 171 168 165 162 160 157 156 154 152 150 148 145 142 137 133 130 124 117 110 103 95 85 71 59 50 39 31 25 19 14 10 7 5 3 2 2 1 0 359 359 358 357 356 356 356 355 353 350 349 348 348 345 341
169 180 179 185 199 274 257 222 163 231 238 243 259 262 223 178 189 189 192 196 183 176 183 195 198 196 195 192 189 187 182 180 177 175 184 187 187 189 190 190 188 185 183 179 175 172 169 167 164 162 161 158 157 155 153 150 146 144 141 137 133 127 121 113 100 82 62 49 40 30 23 17 12 8 4 2 1 359 360 359 358 358 357 356 356 355 354 354 354 352 349 348 347 346 345 342 339
186 189 184 185 175 156 207 221 172 208 257 225 254 276 254 129 54 215 176 182 182 181 186 190 191 194 196 195 192 185 178 177 177 180 182 181 182 186 188 188 187 187 186 184 180 177 174 172 169 168 166 164 162 161 158 155 153 152 151 147 145 144 137 124 105 79 53 39 31 23 17 11 6 2 0 359 358 356 356 356 356 356 356 355 355 354 353 353 352 350 348 346 344 343 342 340 339